sat.trackr.live / text

‹ back to catalog

STARLINK-31513

NORAD 59529 · 2024-073U

PAYLOAD ACTIVE UNKNOWN

§ Identity

Operator
Country
US
Launch date
2024-04-17
Launch site
AFETR
Launch vehicle
Mass (kg)
RCS (m²)

Purposes: comms

External: N2YO · Heavens-Above · Gunter

§ Orbital elements

Epoch: 2026-05-24T17:46:23.647008Z

Period
94.27 min
Inclination
43.0034°
Eccentricity
0.0001603
Mean motion
15.27581684 rev/d
Perigee alt
481.9 km
Apogee alt
484.1 km
Semi-major
6,861.2 km
B*
5.4918e-5
RAAN
245.2831°
Arg perigee
273.6707°
Mean anomaly
86.3962°
Rev number
11,784

§ Raw data

STARLINK-315131 59529U 24073U   26144.74055147  .00001249  00000+0  54918-4 0  99922 59529  43.0034 245.2831 0001603 273.6707  86.3962 15.27581684117845

JSON: /api/v1/satellites/59529 · /tle

For live sub-satellite position, see the globe view (requires WebGL).

§ Visibility from observer

Set your observer location to see the next 7 days of passes ≥ 10°. The values pass through the URL so the page stays shareable.

No JS? Fill the form by hand. The geolocation button needs JavaScript.